Вернуться в каталог

SL-3 R/B

АктивенPO
NORAD 12646·ROCKET BODY·🇷🇺 Russia

Запущен Aug 7, 1981 с Plesetsk Cosmodrome

Loading…

Ближайшие Пролёты (ближайшие 24 часа)

TLE

СвежийSource: Space-Track

Эпоха: Sep 14, 2026, 07:49 UTC

1 12646U 81075B   26257.32614027  .00000034  00000-0  10067-4 0  9992
2 12646  81.2285 185.9931 0068091  66.1023  85.6444 14.16436910329320

Отслеживайте SL-3 R/B в реальном времени с AllMySat

Download on the App Store